NOAA 16 DEB, 41529

Orbit data source: Space-Track

NOAA 16 DEB, 41529 is space debris in SSO originally from a launch on Thu, 21 Sep 2000 UTC launched from the Air Force Western Test Range (AFWTR). Debris objects in space refer to the collection of defunct objects orbiting the Earth. Examples of debris include non-operational satellites, rocket bodies, and fragments generated from explosions, collisions, or faulty payload assembly.

Loading next visibility...
Identifier
41529, 2000-055ND
Orbit
SSO
Country
Flag of USUS
Related business
Manufacturer
Unknown
Mission
Spacecraft
Bus & Motor
Unknown
Mass
Unknown
Launch date (UTC)
2000-09-21 (26 years ago)
Launch vehicle
Unknown
Launch site
Air Force Western Test Range (AFWTR)
Object type
Payload
Rocket body
Debris
Shape & HBR
Unknown shape, 0.1 m
Radar Cross Section
Small (<0.1 m²)

Expand to show TLE details & history
Last TLE update: 6 hours ago

TLE from 6 hours ago
0 NOAA 16 DEB
1 41529U 00055ND  26126.51448435  .00002619  00000-0  13296-2 0  9993
2 41529  98.7029 156.3632 0035950  37.9259 322.4438 14.16449932519803
Epoch: 2026-05-06T12:20Z
TLE epoch observation values (Epoch: 2026-05-06T12:20:51.447Z)
Latitude
Longitude
106.77496°
Altitude
819.761 km
Speed
7.454 km/s
True Right ascension
10h 25m 27s
True Declination
0° 00' 00"
Sunlit
Object was in daylight at epoch
Visualization orbit readout
Latitude
Unknown
Longitude
Unknown
Altitude
Unknown
Speed
Unknown
Apparent Right ascension
Unknown
Apparent Declination
Unknown
Sunlit
N/A
Visualization observer readout
Local Sidereal Time
02:48:12
Azimuth
Unknown
Elevation
Unknown
Doppler factor
Unknown
Orbital elements
Apogee altitude
860.476 km
Perigee altitude
808.617 km
Semi-major axis
7,212.684 km
Eccentricity
0.0036
Inclination
98.7029°
RAAN
156.3632°
Arg. of periapsis
37.9259°
True anomaly
322.1918°
Mean anomaly
322.4438°
Eccentric anomaly
322.31789°
Mean motion
3.54322 °/min
Orbital period
101.6 mins
BSTAR
0.0013296
Loading maneuver chart data...
Computing Atmospheric mass density...
Loading historical data...
Loading historical data...
Loading historical data...
Loading historical data...
Loading historical data...
Loading historical data...
Loading historical data...

Documentation

Showing up to 5 results
|